Weather History for Miami, FL

Change the Weather History Date:

Tuesday, March 26, 2013

  Actual Average Record
Temperature  
Mean Temperature 62 °F 73 °F  
Max Temperature 71 °F 81 °F 89 °F (1984)
Min Temperature 52 °F 66 °F 46 °F (1947)
Degree Days  
Heating Degree Days 3 0  
Month to date heating degree days 27 8  
Since 1 July heating degree days 63 124  
Cooling Degree Days 0 9  
Month to date cooling degree days 119 202  
Year to date cooling degree days 598 524  
Growing Degree Days 13 (Base 50)    
Moisture  
Dew Point 37 °F    
Average Humidity 43    
Maximum Humidity 62    
Minimum Humidity 23    
Precipitation  
Precipitation 0.00 in 0.11 in 2.69 in (1958)
Month to date precipitation 0.81 2.44  
Year to date precipitation 3.20 6.31  
Snow  
Snow 0.00 in - - ()
Month to date snowfall 0.0  
Since 1 July snowfall 0.0  
Snow Depth 0.00 in    
Sea Level Pressure  
Sea Level Pressure 30.10 in    
Wind  
Wind Speed 11 mph (NW)    
Max Wind Speed 17 mph    
Max Gust Speed 25 mph    
Visibility 10 miles    
Events      
T = Trace of Precipitation, MM = Missing Value Source: NWS Daily Summary

Daily Weather History Graph

Daily Weather History Graph

Search for Another Location

Airport:

Trip Planner

Search our weather history database for the weather conditions in past years. The results will help you decide how hot, cold, wet, or windy it might be!

Date:

Astronomy

Mar. 26, 2013 Rise Set
Actual Time 7:18 AM EDT 7:35 PM EDT
Civil Twilight 6:55 AM EDT 7:58 PM EDT
Nautical Twilight 6:28 AM EDT 8:25 PM EDT
Astronomical Twilight 6:01 AM EDT 8:52 PM EDT
Moon 7:08 PM EDT (3/26) 6:32 AM EDT (3/26)
Length of Visible Light 13h 02m
Length of Day
12h 16m
Waxing Gibbous, 99% of the Moon is Illuminated
Mar 26
Waxing Gibbous
Mar 27
Full
Apr 3
Last Quarter
Apr 10
New
Apr 18
First Quarter

Hourly Weather History & Observations

Time (EDT) Temp. Dew Point Humidity Pressure Visibility Wind Dir Wind Speed Gust Speed Precip Events Conditions
12:53 AM 64.9 °F 37.0 °F 36% 30.03 in 10.0 mi NW 9.2 mph 19.6 mph N/A   Mostly Cloudy
1:53 AM 64.0 °F 37.9 °F 38% 30.02 in 10.0 mi WNW 9.2 mph - N/A   Mostly Cloudy
2:53 AM 61.0 °F 35.1 °F 38% 30.03 in 10.0 mi NW 11.5 mph 19.6 mph N/A   Mostly Cloudy
3:53 AM 59.0 °F 39.9 °F 49% 30.03 in 10.0 mi NW 8.1 mph 16.1 mph N/A   Overcast
4:53 AM 57.9 °F 43.0 °F 58% 30.03 in 10.0 mi NNW 8.1 mph 17.3 mph N/A   Mostly Cloudy
5:53 AM 57.9 °F 44.1 °F 60% 30.04 in 10.0 mi NW 9.2 mph - N/A   Mostly Cloudy
6:53 AM 57.9 °F 45.0 °F 62% 30.06 in 10.0 mi NNW 11.5 mph 17.3 mph N/A   Mostly Cloudy
7:53 AM 57.9 °F 45.0 °F 62% 30.08 in 10.0 mi NNW 11.5 mph 16.1 mph N/A   Mostly Cloudy
8:53 AM 59.0 °F 39.9 °F 49% 30.11 in 10.0 mi NNW 9.2 mph - N/A   Mostly Cloudy
9:53 AM 61.0 °F 32.0 °F 34% 30.13 in 10.0 mi NNW 15.0 mph 20.7 mph N/A   Mostly Cloudy
10:53 AM 64.0 °F 35.1 °F 34% 30.13 in 10.0 mi NW 11.5 mph 18.4 mph N/A   Mostly Cloudy
11:53 AM 66.0 °F 37.9 °F 36% 30.13 in 10.0 mi NNW 12.7 mph 20.7 mph N/A   Partly Cloudy
12:53 PM 68.0 °F 39.9 °F 36% 30.13 in 10.0 mi NW 10.4 mph 18.4 mph N/A   Partly Cloudy
1:53 PM 69.8 °F 33.8 °F 27% 30.11 in 10.0 mi NW 12.7 mph 24.2 mph N/A   Partly Cloudy
2:53 PM 69.1 °F 35.1 °F 29% 30.10 in 10.0 mi NNW 15.0 mph 21.9 mph N/A   Partly Cloudy
3:53 PM 69.1 °F 32.0 °F 25% 30.09 in 10.0 mi NW 11.5 mph 25.3 mph N/A   Clear
4:53 PM 69.1 °F 30.9 °F 24% 30.09 in 10.0 mi NW 12.7 mph 21.9 mph N/A   Clear
5:53 PM 68.0 °F 34.0 °F 28% 30.11 in 10.0 mi WNW 10.4 mph 17.3 mph N/A   Clear
6:53 PM 66.0 °F 35.1 °F 32% 30.12 in 10.0 mi NW 9.2 mph 18.4 mph N/A   Clear
7:53 PM 64.9 °F 37.9 °F 37% 30.14 in 10.0 mi NW 6.9 mph - N/A   Clear
8:53 PM 61.0 °F 35.1 °F 38% 30.17 in 10.0 mi NW 10.4 mph 20.7 mph N/A   Clear
9:53 PM 57.9 °F 33.1 °F 39% 30.20 in 10.0 mi NW 9.2 mph 20.7 mph N/A   Clear
10:53 PM 55.0 °F 35.1 °F 47% 30.22 in 10.0 mi NW 9.2 mph - N/A   Clear
11:53 PM 54.0 °F 35.1 °F 49% 30.23 in 10.0 mi NW 9.2 mph 19.6 mph N/A   Clear